Hourly Weather Barsukovo

Today, 19 April, Monday

Time Temperature Precipitation Wind Pressure Humidity
00:00 +7°C° 0 mm 2 mps 752 mmHg 87%
01:00 +6°C° 0 mm 2 mps 752 mmHg 89%
02:00 +5°C° 0 mm 2 mps 752 mmHg 90%
03:00 +5°C° 0 mm 2 mps 752 mmHg 91%
04:00 +5°C° 0 mm 2 mps 752 mmHg 91%
05:00 +5°C° 0 mm 2 mps 752 mmHg 92%
06:00 +5°C° 0 mm 3 mps 752 mmHg 87%
07:00 +6°C° 0 mm 4 mps 752 mmHg 82%
08:00 +7°C° 0 mm 4 mps 752 mmHg 75%
09:00 +8°C° 0 mm 4 mps 751 mmHg 71%
10:00 +10°C° 0 mm 4 mps 751 mmHg 67%
11:00 +10°C° 0 mm 4 mps 751 mmHg 63%
12:00 +11°C° 0 mm 4 mps 751 mmHg 61%
13:00 +11°C° 0 mm 4 mps 751 mmHg 58%
14:00 +12°C° 0 mm 3 mps 751 mmHg 56%
15:00 +11°C° 0 mm 3 mps 751 mmHg 58%
16:00 +11°C° 0 mm 3 mps 751 mmHg 60%
17:00 +10°C° 0 mm 3 mps 751 mmHg 62%
18:00 +10°C° 0 mm 3 mps 751 mmHg 67%
19:00 +9°C° 0 mm 3 mps 751 mmHg 72%
20:00 +8°C° 0 mm 2 mps 751 mmHg 76%
21:00 +7°C° 0.1 mm 2 mps 750 mmHg 81%
22:00 +6°C° 0.1 mm 2 mps 750 mmHg 86%
23:00 +5°C° 0.1 mm 3 mps 750 mmHg 91%

Tomorrow, 20 April, Tuesday

Time Temperature Precipitation Wind Pressure Humidity
00:00 +4°C° 0 mm 3 mps 750 mmHg 92%
01:00 +5°C° 0 mm 2 mps 750 mmHg 94%
02:00 +5°C° 0 mm 2 mps 749 mmHg 95%
03:00 +5°C° 0 mm 2 mps 749 mmHg 95%
04:00 +5°C° 0 mm 2 mps 749 mmHg 95%
05:00 +4°C° 0 mm 2 mps 749 mmHg 94%
06:00 +4°C° 0 mm 3 mps 749 mmHg 90%
07:00 +5°C° 0 mm 3 mps 749 mmHg 85%
08:00 +7°C° 0 mm 3 mps 749 mmHg 80%
09:00 +7°C° 0.1 mm 4 mps 748 mmHg 75%
10:00 +8°C° 0.1 mm 4 mps 748 mmHg 69%
11:00 +10°C° 0.1 mm 4 mps 748 mmHg 64%
12:00 +10°C° 0.1 mm 4 mps 748 mmHg 63%
13:00 +10°C° 0.1 mm 4 mps 747 mmHg 62%
14:00 +11°C° 0.1 mm 4 mps 747 mmHg 60%
15:00 +10°C° 0.1 mm 3 mps 747 mmHg 62%
16:00 +10°C° 0.1 mm 3 mps 746 mmHg 63%
17:00 +10°C° 0.1 mm 3 mps 746 mmHg 65%
18:00 +8°C° 0 mm 3 mps 746 mmHg 70%
19:00 +7°C° 0 mm 2 mps 746 mmHg 75%
20:00 +6°C° 0 mm 2 mps 746 mmHg 81%
21:00 +5°C° 0 mm 2 mps 746 mmHg 84%
22:00 +5°C° 0 mm 2 mps 746 mmHg 87%
23:00 +4°C° 0 mm 2 mps 746 mmHg 90%

Day after tomorrow, 21 April, Wednesday

Time Temperature Precipitation Wind Pressure Humidity
00:00 +5°C° 0 mm 1 mps 746 mmHg 91%
01:00 +4°C° 0 mm 1 mps 746 mmHg 92%
02:00 +4°C° 0 mm 1 mps 746 mmHg 93%
03:00 +4°C° 0 mm 1 mps 745 mmHg 93%
04:00 +4°C° 0 mm 1 mps 745 mmHg 92%
05:00 +4°C° 0 mm 1 mps 745 mmHg 92%
06:00 +5°C° 0 mm 1 mps 745 mmHg 87%
07:00 +7°C° 0 mm 1 mps 745 mmHg 82%
08:00 +7°C° 0 mm 2 mps 745 mmHg 76%
09:00 +9°C° 0.1 mm 2 mps 745 mmHg 72%
10:00 +10°C° 0.1 mm 3 mps 745 mmHg 67%
11:00 +11°C° 0.1 mm 3 mps 745 mmHg 63%
12:00 +12°C° 0.3 mm 3 mps 744 mmHg 61%
13:00 +13°C° 0.3 mm 4 mps 744 mmHg 59%
14:00 +13°C° 0.3 mm 4 mps 744 mmHg 56%
15:00 +13°C° 0.4 mm 3 mps 744 mmHg 59%
16:00 +13°C° 0.4 mm 3 mps 744 mmHg 61%
17:00 +13°C° 0.4 mm 3 mps 744 mmHg 63%
18:00 +11°C° 0.3 mm 3 mps 744 mmHg 69%
19:00 +10°C° 0.3 mm 3 mps 744 mmHg 75%
20:00 +8°C° 0.3 mm 2 mps 745 mmHg 81%
21:00 +8°C° 0 mm 2 mps 745 mmHg 83%
22:00 +7°C° 0 mm 3 mps 745 mmHg 86%
23:00 +7°C° 0 mm 3 mps 745 mmHg 89%

22 April, Thursday

Time Temperature Precipitation Wind Pressure Humidity
00:00 +7°C° 0.1 mm 3 mps 745 mmHg 89%
01:00 +8°C° 0.1 mm 3 mps 745 mmHg 89%
02:00 +8°C° 0.1 mm 3 mps 745 mmHg 89%
03:00 +7°C° 0.1 mm 3 mps 745 mmHg 91%
04:00 +7°C° 0.1 mm 3 mps 745 mmHg 93%
05:00 +7°C° 0.1 mm 3 mps 745 mmHg 95%
06:00 +7°C° 0 mm 4 mps 745 mmHg 90%
07:00 +8°C° 0 mm 4 mps 746 mmHg 84%
08:00 +9°C° 0 mm 5 mps 746 mmHg 78%
09:00 +10°C° 0 mm 5 mps 746 mmHg 68%
10:00 +13°C° 0 mm 5 mps 747 mmHg 58%
11:00 +14°C° 0 mm 5 mps 747 mmHg 47%
12:00 +14°C° 0 mm 5 mps 747 mmHg 46%
13:00 +15°C° 0 mm 4 mps 747 mmHg 45%
14:00 +15°C° 0 mm 4 mps 747 mmHg 45%
15:00 +16°C° 0 mm 3 mps 747 mmHg 47%
16:00 +16°C° 0 mm 2 mps 747 mmHg 48%
17:00 +16°C° 0 mm 2 mps 746 mmHg 50%
18:00 +14°C° 0.1 mm 2 mps 746 mmHg 58%
19:00 +13°C° 0.1 mm 2 mps 746 mmHg 66%
20:00 +10°C° 0.1 mm 3 mps 747 mmHg 75%
21:00 +9°C° 0.2 mm 3 mps 746 mmHg 80%
22:00 +8°C° 0.2 mm 3 mps 746 mmHg 85%
23:00 +7°C° 0.2 mm 3 mps 746 mmHg 91%

23 April, Friday

Time Temperature Precipitation Wind Pressure Humidity
00:00 +7°C° 0.8 mm 3 mps 746 mmHg 90%
01:00 +5°C° 0.8 mm 3 mps 746 mmHg 90%
02:00 +6°C° 0.8 mm 2 mps 746 mmHg 90%
03:00 +6°C° 0 mm 2 mps 747 mmHg 90%
04:00 +6°C° 0 mm 2 mps 747 mmHg 91%
05:00 +5°C° 0 mm 2 mps 747 mmHg 91%
06:00 +6°C° 0.2 mm 2 mps 747 mmHg 85%
07:00 +5°C° 0.2 mm 3 mps 747 mmHg 79%
08:00 +5°C° 0.2 mm 3 mps 747 mmHg 73%
09:00 +6°C° 0.1 mm 4 mps 747 mmHg 68%
10:00 +7°C° 0.1 mm 6 mps 747 mmHg 63%
11:00 +8°C° 0.1 mm 7 mps 747 mmHg 58%
12:00 +8°C° 0.1 mm 7 mps 747 mmHg 58%
13:00 +8°C° 0.1 mm 7 mps 748 mmHg 58%
14:00 +7°C° 0.1 mm 8 mps 748 mmHg 59%
15:00 +8°C° 0.1 mm 7 mps 748 mmHg 59%
16:00 +8°C° 0.1 mm 7 mps 748 mmHg 59%
17:00 +8°C° 0.1 mm 6 mps 748 mmHg 59%
18:00 +7°C° 0 mm 5 mps 748 mmHg 64%
19:00 +5°C° 0 mm 5 mps 748 mmHg 68%
20:00 +4°C° 0 mm 4 mps 748 mmHg 73%
21:00 +4°C° 0 mm 4 mps 748 mmHg 76%
22:00 +3°C° 0 mm 4 mps 749 mmHg 80%
23:00 +1°C° 0 mm 4 mps 749 mmHg 84%

24 April, Saturday

Time Temperature Precipitation Wind Pressure Humidity
00:00 +2°C° 0 mm 3 mps 749 mmHg 86%
01:00 +1°C° 0 mm 3 mps 749 mmHg 88%
02:00 +1°C° 0 mm 3 mps 749 mmHg 90%
03:00 0°C° 0 mm 3 mps 749 mmHg 90%
04:00 0°C° 0 mm 3 mps 749 mmHg 90%
05:00 -1°C° 0 mm 3 mps 749 mmHg 91%
06:00 0°C° 0 mm 3 mps 749 mmHg 79%
07:00 +1°C° 0 mm 3 mps 750 mmHg 67%
08:00 +3°C° 0 mm 3 mps 750 mmHg 55%
09:00 +4°C° 0 mm 2 mps 749 mmHg 53%
10:00 +5°C° 0 mm 2 mps 749 mmHg 50%
11:00 +6°C° 0 mm 2 mps 749 mmHg 47%
12:00 +6°C° 0.9 mm 1 mps 749 mmHg 62%
13:00 +5°C° 0.9 mm 1 mps 748 mmHg 76%
14:00 +4°C° 0.9 mm 1 mps 748 mmHg 90%
15:00 +3°C° 0.2 mm 2 mps 748 mmHg 91%
16:00 +3°C° 0.2 mm 2 mps 748 mmHg 92%
17:00 +3°C° 0.2 mm 2 mps 748 mmHg 93%
18:00 +3°C° 0 mm 2 mps 748 mmHg 93%
19:00 +2°C° 0 mm 2 mps 749 mmHg 92%
20:00 +2°C° 0 mm 2 mps 749 mmHg 92%
21:00 +1°C° 0 mm 2 mps 749 mmHg 93%
22:00 +1°C° 0 mm 2 mps 749 mmHg 93%
23:00 -1°C° 0 mm 2 mps 749 mmHg 94%
Show more